Location: Acequia del Cap
(41.7000°N, 0.6167°E)
Time: 00:18:10
(UTC+00:00)

Cosmos 2034 Rocket - Pass Details

Date: 07 August 2020
Orbit: 958 x 1000 km, 82.9° (Epoch: 22 September)

Event Time Altitude Azimuth Distance (km) Brightness Sun altitude
Exits shadow 00:35:49 66° 68° (ENE) 1,066 4.1 -31.5°
Drops below altitude 10° 00:41:38 10° 13° (NNE) 2,750 7.2 -31.3°
Sets 00:44:11 0° 11° (N) 3,709 8.2 -31.2°
